{"data":{"norad_id":63311,"intl_designator":"2025-057E","name":"STARLINK-11589 [DTC]","alt_names":[],"object_type":"PAYLOAD","status":"ACTIVE","operator":null,"country":"US","launch_date":"2025-03-18","launch_site_code":"AFETR","launch_vehicle":null,"mission":null,"orbit_class":"UNKNOWN","rcs_meters":null,"size_class":null,"mass_kg":null,"dimensions":null,"purposes":["comms"],"wikipedia_slug":null,"has_3d_model":false,"image_url":null,"decayed_at":null,"tle_current":{"epoch":"2026-09-20T18:25:04.719936Z","epoch_age_seconds":135792,"freshness":"FRESH","line1":"1 63311U 25057E   26263.76741574  .00155350  00000+0  11901-2 0  9995","line2":"2 63311  43.0027 169.0805 0003113 257.5080 102.5440 15.70869411 87852","mean_motion":15.70869411,"eccentricity":0.0003113,"inclination_deg":43.0027,"raan_deg":169.0805,"arg_perigee_deg":257.508,"mean_anomaly_deg":102.544,"bstar":0.0011901,"rev_number":8785,"period_min":91.668982151948,"perigee_km":354.31453594514,"apogee_km":358.5074655304,"semimajor_km":6734.5480007378,"source":"CELESTRAK","updated_at":"2026-09-21T09:00:34.967744Z"}}}